Location: Home
(42.5358°N, 72.7383°W)
Time: 06:42:59
(UTC-05:00)

Courier 1B Rocket - Pass Details

Date: 06 December 2021
Orbit: 920 x 1202 km, 28.2° (Epoch: 25 January)

Event Time Altitude Azimuth Distance (km) Brightness Sun altitude
Rises 01:18:48 0° 251° (WSW) 3,575 - -61.6°
Reaches altitude 10° 01:22:27 10° 231° (SW) 2,610 - -61.1°
Maximum altitude 01:26:09 16° 195° (SSW) 2,177 - -60.5°
Drops below altitude 10° 01:29:51 10° 158° (SSE) 2,606 - -60.0°
Sets 01:33:29 0° 137° (SE) 3,567 - -59.4°
